Location: Le Vaud
(46.4779°N, 6.2346°E)
Time: 23:14:25
(UTC+00:00)

STARLINK-1113 - Pass Details

Date: 18 February 2020
Orbit: 548 x 551 km, 53.0° (Epoch: 05 April)

Event Time Altitude Azimuth Distance (km) Brightness Sun altitude
Exits shadow 05:29:31 - 223° (SW) 2,261 6.4 -11.9°
Reaches altitude 10° 05:30:37 10° 220° (SW) 1,828 5.9 -11.7°
Maximum altitude 05:34:41 55° 143° (SE) 671 4.3 -11.0°
Drops below altitude 10° 05:38:47 10° 66° (ENE) 1,843 7.3 -10.3°
Sets 05:41:03 0° 62° (ENE) 2,742 8.2 -9.9°
